Date,TemperatureHighF,TemperatureAvgF,TemperatureLowF,DewpointHighF,DewpointAvgF,DewpointLowF,HumidityHigh,HumidityAvg,HumidityLow,PressureMaxIn,PressureMinIn,WindSpeedMaxMPH,WindSpeedAvgMPH,GustSpeedMaxMPH,PrecipitationSumIn
2013-2-1,42.8,32.8,23.4,37.7,30.4,21.3,95,91,77,27.89,27.68,4,1,4,0.00
2013-2-2,35.5,28.5,20.2,32.3,26.6,17.9,95,92,88,27.92,27.72,2,0,2,0.00
2013-2-3,36.5,31.2,23.2,33.9,29.4,21.7,95,93,90,27.73,27.58,4,0,4,0.00
2013-2-4,41.0,33.6,27.9,36.8,31.6,26.4,96,92,84,27.61,27.45,4,0,4,0.00
2013-2-5,42.3,35.0,26.8,36.3,32.1,25.0,95,89,77,27.46,27.32,6,1,6,0.00
2013-2-6,45.0,36.5,31.3,34.8,31.6,27.8,92,83,64,27.53,27.41,9,2,9,0.00
2013-2-7,41.8,35.8,32.4,35.8,31.3,28.4,93,84,72,27.51,27.38,5,1,5,0.03
2013-2-8,38.2,32.3,28.1,33.9,30.0,25.8,95,92,84,27.60,27.51,2,0,2,0.14
2013-2-9,38.0,29.7,21.2,30.9,26.7,18.8,95,89,74,27.65,27.51,5,0,5,0.00
2013-2-10,34.2,26.6,20.5,31.1,24.0,18.3,93,90,81,27.73,27.66,3,0,3,0.00
2013-2-11,41.8,29.1,16.4,32.0,25.0,14.1,94,85,67,27.71,27.64,6,0,6,0.00
2013-2-12,43.0,35.8,30.8,36.5,32.2,28.6,94,87,70,27.74,27.62,7,1,7,0.00
2013-2-13,45.4,36.3,23.6,35.5,30.2,20.6,92,79,55,27.79,27.61,9,2,9,0.00
2013-2-14,43.2,30.2,20.2,33.8,25.5,17.6,94,83,62,27.97,27.79,5,0,5,0.00
2013-2-15,52.4,32.6,20.2,38.0,27.0,17.6,93,81,56,27.97,27.71,5,0,5,0.00
2013-2-16,48.6,34.5,22.7,38.6,30.0,20.2,93,84,66,27.72,27.40,7,1,7,0.00
2013-2-17,45.0,34.4,25.9,31.8,26.9,21.6,91,75,51,27.57,27.44,9,2,9,0.02
2013-2-18,42.3,31.3,21.8,31.1,25.0,19.3,93,78,51,27.57,27.27,7,1,7,0.00
2013-2-19,37.3,32.2,27.0,33.5,29.2,24.8,93,88,85,27.36,27.21,3,0,3,0.16
2013-2-20,41.6,30.0,20.3,32.8,26.4,17.5,95,87,62,27.46,27.36,5,0,5,0.00
2013-2-21,35.8,29.9,19.6,33.4,27.4,17.1,93,90,84,27.48,27.43,6,1,6,0.01
2013-2-22,37.3,33.2,29.2,35.0,31.0,26.8,95,92,76,27.46,27.13,10,2,10,0.29
2013-2-23,45.7,31.8,22.1,30.7,24.4,18.9,90,75,43,27.69,27.19,12,3,12,0.05
2013-2-24,39.1,30.0,22.1,30.0,25.4,19.9,93,83,66,27.75,27.52,8,1,8,0.00
2013-2-25,41.9,35.5,31.1,34.1,28.4,22.5,93,76,60,27.58,27.38,10,3,10,0.26
2013-2-26,43.2,32.3,25.2,29.4,25.5,22.3,92,77,53,27.75,27.58,6,1,6,0.00
2013-2-27,48.6,36.1,30.2,33.2,27.6,24.6,87,72,51,27.73,27.66,8,1,8,0.00
2013-2-28,40.7,36.5,30.8,38.5,34.3,27.3,95,92,86,27.79,27.67,4,1,4,0.23